Weather History for Walnut Ridge, AR

Change the Weather History Date:

Saturday, October 27, 2012

  Actual Average Record
Temperature  
Mean Temperature 46 °F -  
Max Temperature 57 °F 66 °F 80 °F (1999)
Min Temperature 35 °F 48 °F 33 °F (2001)
Degree Days  
Heating Degree Days 19    
Moisture  
Dew Point 31 °F    
Average Humidity 60    
Maximum Humidity 81    
Minimum Humidity 33    
Precipitation  
Precipitation 0.00 in - - ()
Sea Level Pressure  
Sea Level Pressure 30.21 in    
Wind  
Wind Speed 11 mph (North)    
Max Wind Speed 17 mph    
Max Gust Speed 23 mph    
Visibility 10 miles    
Events      
Averages and records for this station are not official NWS values.
T = Trace of Precipitation, MM = Missing Value Source: NWS Daily Summary

Daily Weather History Graph

Daily Weather History Graph

Search for Another Location

Airport:

Trip Planner

Search our weather history database for the weather conditions in past years. The results will help you decide how hot, cold, wet, or windy it might be!

Date:

Astronomy

Oct. 27, 2012 Rise Set
Actual Time 7:22 AM CDT 6:12 PM CDT
Civil Twilight 6:55 AM CDT 6:38 PM CDT
Nautical Twilight 6:25 AM CDT 7:08 PM CDT
Astronomical Twilight 5:55 AM CDT 7:38 PM CDT
Moon 4:56 PM CDT (10/27) 5:19 AM CDT (10/27)
Length of Visible Light 11h 43m
Length of Day
10h 50m
Waxing Gibbous, 96% of the Moon is Illuminated
Oct 27
Waxing Gibbous
Oct 29
Full
Nov 6
Last Quarter
Nov 13
New
Nov 20
First Quarter

Hourly Weather History & Observations

Time (CDT) Temp. Windchill Dew Point Humidity Pressure Visibility Wind Dir Wind Speed Gust Speed Precip Events Conditions
12:15 AM 39.2 °F 33.0 °F 33.8 °F 81% 30.27 in 10.0 mi NNW 9.2 mph - N/A   Clear
1:15 AM 39.2 °F 32.5 °F 32.0 °F 75% 30.26 in 10.0 mi NNW 10.4 mph - N/A   Clear
1:35 AM 39.2 °F 32.5 °F 32.0 °F 75% 30.26 in 10.0 mi NNW 10.4 mph - N/A   Clear
2:15 AM 39.2 °F 33.0 °F 32.0 °F 75% 30.25 in 10.0 mi NNW 9.2 mph - N/A   Clear
2:35 AM 39.2 °F 33.0 °F 32.0 °F 75% 30.24 in 10.0 mi NNW 9.2 mph - N/A   Clear
2:55 AM 39.2 °F 33.0 °F 32.0 °F 75% 30.24 in 10.0 mi NNW 9.2 mph - N/A   Clear
3:16 AM 37.4 °F 30.8 °F 32.0 °F 81% 30.23 in 10.0 mi NNW 9.2 mph - N/A   Clear
3:35 AM 37.4 °F 30.8 °F 30.2 °F 75% 30.22 in 10.0 mi NNW 9.2 mph - N/A   Clear
4:15 AM 37.4 °F 30.3 °F 32.0 °F 81% 30.22 in 10.0 mi North 10.4 mph - N/A   Clear
4:35 AM 37.4 °F 30.3 °F 30.2 °F 75% 30.22 in 10.0 mi North 10.4 mph - N/A   Clear
4:55 AM 37.4 °F 30.3 °F 30.2 °F 75% 30.22 in 10.0 mi NNW 10.4 mph - N/A   Clear
5:16 AM 37.4 °F 30.3 °F 30.2 °F 75% 30.23 in 10.0 mi NNW 10.4 mph - N/A   Clear
5:35 AM 37.4 °F 30.3 °F 30.2 °F 75% 30.24 in 10.0 mi NNW 10.4 mph - N/A   Clear
5:55 AM 37.4 °F 30.3 °F 30.2 °F 75% 30.24 in 10.0 mi NNW 10.4 mph - N/A   Clear
6:55 AM 35.6 °F 28.6 °F 30.2 °F 81% 30.25 in 10.0 mi NNW 9.2 mph - N/A   Clear
7:55 AM 37.4 °F 29.8 °F 30.2 °F 75% 30.26 in 10.0 mi NNW 11.5 mph - N/A   Clear
8:15 AM 37.4 °F 28.9 °F 30.2 °F 75% 30.26 in 10.0 mi NNW 13.8 mph - N/A   Clear
8:35 AM 39.2 °F 30.8 °F 30.2 °F 70% 30.27 in 10.0 mi NNW 15.0 mph - N/A   Clear
9:15 AM 41.0 °F 32.5 °F 30.2 °F 65% 30.27 in 10.0 mi North 17.3 mph 21.9 mph N/A   Clear
9:35 AM 42.8 °F 34.8 °F 32.0 °F 66% 30.27 in 10.0 mi North 17.3 mph - N/A   Clear
10:35 AM 46.4 °F 40.1 °F 33.8 °F 62% 30.27 in 10.0 mi North 15.0 mph - N/A   Clear
10:55 AM 46.4 °F 40.4 °F 33.8 °F 62% 30.27 in 10.0 mi North 13.8 mph 19.6 mph N/A   Clear
11:15 AM 48.2 °F - 33.8 °F 58% 30.27 in 10.0 mi NNE 15.0 mph 23.0 mph N/A   Clear
11:35 AM 48.2 °F - 33.8 °F 58% 30.25 in 10.0 mi North 12.7 mph 20.7 mph N/A   Clear
11:55 AM 50.0 °F - 32.0 °F 50% 30.24 in 10.0 mi North 13.8 mph 20.7 mph N/A   Clear
12:15 PM 51.8 °F - 33.8 °F 50% 30.24 in 10.0 mi North 11.5 mph - N/A   Clear
12:35 PM 51.8 °F - 33.8 °F 50% 30.23 in 10.0 mi North 12.7 mph 17.3 mph N/A   Clear
12:55 PM 51.8 °F - 33.8 °F 50% 30.22 in 10.0 mi NNW 9.2 mph 17.3 mph N/A   Clear
1:16 PM 53.6 °F - 33.8 °F 47% 30.20 in 10.0 mi NNW 11.5 mph 17.3 mph N/A   Clear
1:55 PM 53.6 °F - 30.2 °F 41% 30.18 in 10.0 mi NW 13.8 mph - N/A   Clear
2:35 PM 55.4 °F - 30.2 °F 38% 30.16 in 10.0 mi NNW 17.3 mph 21.9 mph N/A   Clear
2:55 PM 55.4 °F - 28.4 °F 36% 30.15 in 10.0 mi NNW 11.5 mph - N/A   Clear
3:15 PM 57.2 °F - 30.2 °F 36% 30.15 in 10.0 mi North 13.8 mph 20.7 mph N/A   Clear
3:35 PM 57.2 °F - 28.4 °F 33% 30.14 in 10.0 mi North 16.1 mph 20.7 mph N/A   Clear
3:55 PM 57.2 °F - 28.4 °F 33% 30.14 in 10.0 mi NNE 15.0 mph 18.4 mph N/A   Clear
4:35 PM 57.2 °F - 28.4 °F 33% 30.15 in 10.0 mi North 13.8 mph - N/A   Clear
4:55 PM 55.4 °F - 28.4 °F 36% 30.14 in 10.0 mi North 12.7 mph 16.1 mph N/A   Clear
5:15 PM 55.4 °F - 28.4 °F 36% 30.14 in 10.0 mi North 9.2 mph - N/A   Clear
5:36 PM 55.4 °F - 28.4 °F 36% 30.14 in 10.0 mi North 8.1 mph - N/A   Clear
5:55 PM 53.6 °F - 28.4 °F 38% 30.14 in 10.0 mi North 8.1 mph - N/A   Clear
6:15 PM 51.8 °F - 28.4 °F 41% 30.14 in 10.0 mi North 8.1 mph - N/A   Clear
6:55 PM 46.4 °F 42.9 °F 33.8 °F 62% 30.16 in 10.0 mi North 6.9 mph - N/A   Clear
7:15 PM 48.2 °F - 30.2 °F 50% 30.16 in 10.0 mi North 6.9 mph - N/A   Clear
7:36 PM 44.6 °F 40.2 °F 32.0 °F 61% 30.16 in 10.0 mi North 8.1 mph - N/A   Clear
7:55 PM 46.4 °F 42.9 °F 32.0 °F 57% 30.17 in 10.0 mi North 6.9 mph - N/A   Clear
8:15 PM 48.2 °F - 30.2 °F 50% 30.17 in 10.0 mi North 10.4 mph - N/A   Clear
8:55 PM 46.4 °F 41.9 °F 30.2 °F 53% 30.17 in 10.0 mi North 9.2 mph - N/A   Clear
9:15 PM 44.6 °F 39.7 °F 32.0 °F 61% 30.18 in 10.0 mi North 9.2 mph - N/A   Clear
9:55 PM 42.8 °F 38.0 °F 32.0 °F 66% 30.20 in 10.0 mi North 8.1 mph - N/A   Clear
10:55 PM 39.2 °F 35.0 °F 33.8 °F 81% 30.21 in 10.0 mi NNW 5.8 mph - N/A   Clear
11:15 PM 39.2 °F 34.2 °F 33.8 °F 81% 30.21 in 10.0 mi North 6.9 mph - N/A   Clear
11:55 PM 39.2 °F 33.0 °F 33.8 °F 81% 30.20 in 10.0 mi North 9.2 mph - N/A   Clear